"Pseudo-MPEC" for 2011-077G = NORAD 40183

Created 2016 Sep 10 12:39:09 UT using Find_Orb

Astrometry:
2011-077G    tC2016 09 06.09130 22 43 01.71 +22 28 26.8          15.2 R      Y00
2011-077G    tC2016 09 06.09215 22 43 28.22 +22 26 00.8          15.2 R      Y00
2011-077G    tC2016 09 06.09331 22 44 03.98 +22 22 44.7          15.6 R      Y00
2011-077G    tC2016 09 06.23256 23 46 24.93 +16 05 22.2          14.7 R      Y00
2011-077G    tC2016 09 06.23359 23 46 52.69 +16 02 24.0          14.9 R      Y00
2011-077G    tC2016 09 06.23459 23 47 19.36 +15 59 32.7          14.9 R      Y00

Station data:
(Y00) SONEAR Observatory, Oliveira (S20.71513 W44.78496)  Brazil.   Observers
    C. Jacques, E. Pimentel, J. Barros.  Measurer C. Jacques.  0.28-m f/2.2
    astrograph + CCD.

Orbital elements:  2011-077G = NORAD 40183
   Perigee 2016 Sep 5.903325 +/- 0.00208 TT = 21:40:47 (JD 2457637.403325)
Epoch 2016 Sep  6.0 TT = JDT 2457637.5                        Find_Orb
M  63.413866 +/- 1.2                (J2000 equatorial)
n 655.946974111 +/- 3.49            Peri.  317.644636 +/- 0.27
a 28315.50756 +/- 101               Node   212.665206 +/- 0.042
e   0.75820016 +/- 0.00164          Incl.   21.098271 +/- 0.06
P 790.29m/0.549d           H 32.1   G  0.15   U 13.6  
q 6846.685190 +/- 70    Q 49784.32993 +/- 134
From 6 observations 2016 Sept. 6 (3.4 hr); mean residual 1".121
Residuals in arcseconds: 
160906 Y00 .740+ .063-    160906 Y00 1.91- .862+    160906 Y00 1.64+ .710-    
160906 Y00 1.15+ .789-    160906 Y00 .403+ .174-    160906 Y00 2.02- .873+    

Ephemerides (geocentric):
Date (UTC) HH   RA              Dec         delta   r     elong  mag " sig PA
---- -- -- --  ------------   ------------  ------ ------ -----  --- ---- ---
2016 09 06 00  21 20 09.820   +20 12 42.43   34141 1.0082 143.8 15.3  776  88
2016 09 06 01  22 02 34.970   +18 48 44.07   41020 1.0082 151.1 15.5  254  82
2016 09 06 02  22 33 50.216   +17 22 27.75   45701 1.0082 155.4 15.6   54  39
2016 09 06 03  22 59 52.061   +15 55 23.24   48546 1.0082 157.7 15.7   66 123
2016 09 06 04  23 23 27.122   +14 25 07.38   49735 1.0082 158.4 15.7   72 104
2016 09 06 05  23 46 20.398   +12 47 49.79   49333 1.0082 157.7 15.7   29  47
2016 09 06 06  00 10 03.704   +10 57 45.26   47319 1.0082 155.5 15.7  132 130
2016 09 06 07  00 36 31.845   +08 45 08.72   43575 1.0082 151.7 15.6  398 120
2016 09 06 08  01 09 06.903   +05 50 21.74   37842 1.0081 145.7 15.5  940 117
2016 09 06 09  01 56 14.564   +01 22 58.95   29607 1.0080 135.6 15.3 2301 115
2016 09 06 10  03 34 56.788   -07 54 18.02   17778 1.0079 112.1 14.8 8312 111
2016 09 06 11  14 25 20.885   +01 27 28.98    7894 1.0078  51.1 16?? 909'  69
2016 09 06 12  19 49 15.017   +21 00 56.96   22242 1.0079 125.5 14.9 5729  86
2016 09 06 13  21 11 22.459   +20 24 26.54   32691 1.0080 142.0 15.3 2080  92
2016 09 06 14  21 56 52.455   +19 00 52.06   40006 1.0081 150.1 15.5 1065  95
2016 09 06 15  22 29 27.570   +17 33 55.76   45033 1.0081 154.9 15.6  648  97
2016 09 06 16  22 56 07.744   +16 06 33.08   48177 1.0081 157.6 15.7  464 101
2016 09 06 17  23 19 58.858   +14 36 36.66   49643 1.0081 158.7 15.7  410 105
2016 09 06 18  23 42 52.104   +13 00 28.13   49514 1.0081 158.3 15.7  457 110
2016 09 06 19  00 06 19.089   +11 12 46.30   47783 1.0081 156.5 15.7  613 112
2016 09 06 20  00 32 07.555   +09 04 41.87   44349 1.0080 153.0 15.6  934 114
2016 09 06 21  01 03 16.635   +06 19 04.92   38986 1.0080 147.5 15.5 1581 114
2016 09 06 22  01 46 45.898   +02 14 02.58   31236 1.0079 138.3 15.3 3123 114
2016 09 06 23  03 09 28.964   -05 39 29.89   20143 1.0078 118.7 14.9 8951 112
2016 09 07 00  11 24 10.585   -14 18 29.03    6847 1.0077  21.0 21??  24d  74
2016 09 07 01  19 26 14.016   +20 45 12.43   20019 1.0078 120.4 14.8 177'  85
2016 09 07 02  21 01 40.343   +20 35 46.17   31151 1.0079 139.9 15.2 3684  93
2016 09 07 03  21 50 49.349   +19 13 12.28   38927 1.0079 149.0 15.5 1987  96
2016 09 07 04  22 24 55.537   +17 45 33.70   44310 1.0079 154.4 15.6 1316  99
2016 09 07 05  22 52 19.200   +16 17 46.14   47759 1.0080 157.5 15.7 1014 102
2016 09 07 06  23 16 29.513   +14 48 01.24   49505 1.0080 159.0 15.7  902 105
2016 09 07 07  23 39 25.345   +13 12 51.63   49648 1.0080 158.9 15.7  926 108
2016 09 07 08  00 02 39.072   +11 27 16.93   48196 1.0079 157.4 15.7 1088 110
2016 09 07 09  00 27 52.844   +09 23 15.68   45067 1.0079 154.2 15.6 1441 112
2016 09 07 10  00 57 47.011   +06 45 41.54   40059 1.0078 149.1 15.5 2157 113
2016 09 07 11  01 38 14.411   +02 59 24.29   32768 1.0078 140.7 15.3 3795 113
2016 09 07 12  02 49 28.224   -03 50 39.40   22356 1.0077 124.1 15.0 9266 112
2016 09 07 13  08 09 10.592   -21 05 46.00    8002 1.0075  50.9 16??  20d  90
2016 09 07 14  18 57 14.477   +20 09 28.71   17646 1.0076 113.8 14.8 312'  83
2016 09 07 15  20 50 50.226   +20 46 20.96   29515 1.0077 137.6 15.2 5699  92
2016 09 07 16  21 44 21.608   +19 25 46.32   37778 1.0078 147.8 15.4 3042  97
2016 09 07 17  22 20 12.040   +17 57 25.70   43530 1.0078 153.7 15.6 2042 100
2016 09 07 18  22 48 24.962   +16 29 07.27   47291 1.0078 157.3 15.7 1592 102
2016 09 07 19  23 12 57.829   +14 59 26.55   49319 1.0078 159.2 15.7 1406 105
2016 09 07 20  23 35 58.884   +13 25 06.57   49735 1.0078 159.4 15.7 1396 107
2016 09 07 21  23 59 02.270   +11 41 25.02   48560 1.0078 158.2 15.7 1552 109
2016 09 07 22  00 23 45.841   +09 41 01.53   45730 1.0078 155.3 15.6 1924 111
2016 09 07 23  00 52 34.538   +07 10 33.32   41066 1.0077 150.6 15.5 2681 112
2016 09 08 00  01 30 28.751   +03 40 10.51   34210 1.0076 142.9 15.4 4359 112
2016 09 08 01  02 33 06.282   -02 20 38.96   24426 1.0076 128.5 15.0 9432 112